Weather Roundup
Issued by NWS

Home | Current Version | Previous Version | Graphics & Text | Print | Product List | Glossary Off
Versions: 1 2 3 4 5 6 7 8 9 10 11 12 13 14 15 16 17 18 19 20 21 22 23 24 25 26 27 28 29 30 31 32 33 34 35 36 37 38 39 40 41 42 43 44 45 46 47 48 49 50

892
NZUS93 KARX 180459
HRRWXR

CURRENT HOURLY OBSERVATIONS ACROSS
MUCH OF THE UPPER MISSISSIPPI VALLEY
NATIONAL WEATHER SERVICE LA CROSSE WI
1100 PM CST WED JAN 17 2018


...SOUTHEAST MINNESOTA...


CITY           SKY/WX    TMP DP  RH WIND       PRES   REMARKS
ROCHESTER      FAIR      19  14  81 SW22      30.05F WCI   2
ROCHESTER/MAYO FAIR      23  16  73 W10G23    30.07F WCI  13
WINONA         FAIR      27  18  69 W8        30.09F WCI  18
AUSTIN         NOT AVBL
ALBERT LEA     FAIR      23  14  68 SW9G23    30.09F WCI  13
DODGE CENTER   FAIR      21  16  79 SW20      30.05F WCI   6
PRESTON        FAIR      20  13  72 SW20G29   30.08F WCI   5
OWATONNA       FAIR      21  16  79 SW15      30.06F WCI   8
FARIBAULT      FAIR      23  16  74 S12       30.06F WCI  12
$$

...ELSEWHERE IN MINNESOTA...


CITY           SKY/WX    TMP DP  RH WIND       PRES   REMARKS
MINNEAPOLIS    FAIR      25  17  72 SW8       30.04S WCI  16
INTNL FALLS    FAIR      22  18  85 SW7       29.74F WCI  13
DULUTH         FAIR      23  15  71 W14       29.82S WCI  11
RED WING       FAIR      25  12  58 CALM      30.05S
REDWOOD FALLS  CLOUDY    24  17  74 SW12      30.05F WCI  13
MANKATO        FAIR      23  17  78 SW13      30.07F WCI  11
WORTHINGTON    CLOUDY    23  17  78 SW21      30.09F WCI   8
FAIRMONT       CLOUDY    24  18  77 SW10      30.11F WCI  14
$$

...SOUTHWEST WISCONSIN...


CITY           SKY/WX    TMP DP  RH WIND       PRES   REMARKS
LA CROSSE      FAIR      22  12  65 S10       30.11F WCI  11
PRAIRIE DU CHI FAIR      21   8  57 SW5       30.20F WCI  14
BOSCOBEL       FAIR      21   9  59 SW13G24   30.17F WCI   9
LONE ROCK      FAIR      18   9  68 W5        30.15F WCI  11
PLATTEVILLE    FAIR      19  11  69 SW18      30.18F WCI   4
FORT MC COY    FAIR      23  13  66 SW6       30.10S WCI  15
CAMP DOUGLAS   CLEAR     21  12  68 W16G22    30.05F WCI   7
MAUSTON-NEW LI FAIR      22  11  62 W9G21     30.06F WCI  12
VIROQUA        FAIR      20  13  74 W15       30.09F WCI   6
WIS DELLS      FAIR      19   9  63 SW14G21   30.08F WCI   6
$$

...ELSEWHERE IN WISCONSIN...


CITY           SKY/WX    TMP DP  RH WIND       PRES   REMARKS
MILWAUKEE      FAIR      20  10  65 W15G26    30.08F WCI   6
MADISON        FAIR      19   9  65 SW9G21    30.12F WCI   8
GREEN BAY      FAIR      20   8  60 SW13      29.99S WCI   7
EAU CLAIRE     NOT AVBL
BLACK RVR FLS  FAIR      23  12  61 SW8       30.05F WCI  14
MEDFORD        FAIR      18  10  71 W8        29.95F WCI   8
WAUSAU         FAIR      20  11  68 W9        29.96S WCI   9
WIS RAPIDS     FAIR      20   9  62 W9        30.03F WCI   9
MARSHFIELD     FAIR      19  11  70 W13       29.97S WCI   6
RICE LAKE      FAIR      23  15  71 CALM      29.98F
$$

...NORTHEAST IOWA...


CITY           SKY/WX    TMP DP  RH WIND       PRES   REMARKS
WATERLOO       FAIR      18   9  68 SW12      30.21F WCI   5
DUBUQUE        FAIR      17   8  67 SW20      30.16F WCI   1
DECORAH        FAIR      19  12  73 SW10G21   30.12F WCI   8
MASON CITY     CLOUDY    19  11  70 SW24G30   30.15F WCI   2
CHARLES CITY   FAIR      19  12  73 SW13      30.17F WCI   7
OELWEIN        FAIR      18  12  79 SW16      30.19F WCI   3
$$

...ELSEWHERE IN IOWA...


CITY           SKY/WX    TMP DP  RH WIND       PRES   REMARKS
DES MOINES     CLOUDY    20  10  65 SW13      30.27F WCI   7
IOWA CITY      FAIR      20   8  60 SW8       30.30F WCI  10
FORT DODGE     CLOUDY    18  11  74 SW9       30.20F WCI   7
MARSHALLTOWN   CLEAR     19  11  70 SW15      30.23F WCI   5
CEDAR RAPIDS   FAIR      19  10  68 SW12      30.24F WCI   7
$$

...NORTHERN ILLINOIS...


CITY           SKY/WX    TMP DP  RH WIND       PRES   REMARKS
CHICAGO-OHARE  FAIR      18   9  68 SW21G31   30.21F WCI   1
CHICAGO-MIDWAY FAIR      19  10  68 SW22G31   30.23F WCI   2
MOLINE         FAIR      19  11  70 SW17      30.28F WCI   4
ROCKFORD       FAIR      17   9  70 SW9       30.23F WCI   6
PEORIA         FAIR      18   9  68 SW16      30.35F WCI   3
$$

NOTE: "FAIR" INDICATES FEW OR NO CLOUDS BELOW 12,000 FEET WITH NO
SIGNIFICANT WEATHER AND/OR OBSTRUCTIONS TO VISIBILITY. WIND
SPEEDS ARE IN MILES-PER-HOUR.




USA.gov is the U.S. government's official web portal to all federal, state and local government web resources and services.